[[{"header":{"parameterUnit":"m.s-1","parameterCategory":1,"la1":30.2991,"la2":30.254,"lo1":-89.0895,"lo2":-89.0444,"dy":0.0017,"dx":0.0017,"nx":28,"ny":28,"refTime":"2024-12-02T03:00:00:Z","depth":0,"parameterNumber":2,"parameterNumberName":"U-component_of_WINDS"},"data":[0,0,0,0,0,0,0,0,0,0,0,0,0,0,0,0,0,0,0,0,0,0,0,0,0,0,0,0,0,0,0,0,0,0,0,0,0,0,0,0,0,0,0,0,0,0,0,0,0,0,0,0,0,0,0,0,0,0,-1.8096,-1.8096,0,-1.8089,-1.8089,-1.8089,-1.8007,-1.8004,-1.8002,-1.8,-1.7995,-1.7997,-1.7999,0,0,0,0,0,0,0,0,0,0,0,0,0,-1.8042,-1.8044,-1.8096,-1.8096,-1.8096,-1.8089,-1.8089,-1.8089,-1.8007,-1.8004,-1.8002,-1.8,-1.7995,-1.7997,-1.7999,0,0,0,0,0,0,0,0,0,0,0,0,0,-1.8053,-1.8044,-1.8096,-1.8054,-1.8051,-1.8089,-1.8089,-1.8089,-1.8007,-1.8004,-1.8001,-1.7998,-1.7994,-1.7997,-1.7999,-1.8078,0,0,-1.8007,-1.8009,0,0,0,0,0,0,0,0,-1.8053,-1.8055,-1.8061,-1.8057,-1.8053,-1.8045,-1.8068,-1.8085,-1.8008,-1.8024,-1.8,-1.7997,-1.8015,-1.8015,-1.8021,-1.8078,-1.8077,-1.8008,-1.8009,-1.801,-1.8011,0,0,0,0,0,0,0,-1.8052,-1.8055,-1.8093,-1.8061,-1.8056,-1.8037,-1.8035,-1.8071,-1.8037,-1.8022,-1.8016,-1.8016,-1.8012,-1.8018,-1.802,-1.8077,-1.8008,-1.801,-1.8012,-1.8013,-1.82,-1.8203,0,0,0,0,0,0,-1.8057,-1.8055,-1.8094,-1.8093,-1.8045,-1.804,-1.8038,-1.8051,-1.8036,-1.8031,-1.8019,-1.8013,-1.8015,-1.8017,-1.802,-1.8112,-1.801,-1.8013,-1.8014,-1.8196,-1.82,-1.8204,0,0,0,0,0,0,-1.8056,-1.8061,-1.8094,-1.8073,-1.8075,-1.8044,-1.806,-1.8053,-1.8059,-1.8034,-1.8028,-1.8032,-1.8013,-1.8016,-1.8064,-1.8111,-1.8014,-1.8017,-1.8192,-1.8198,-1.8202,-1.8298,0,0,0,0,0,0,-1.8055,-1.8061,-1.809,-1.8074,-1.8077,-1.8138,-1.8062,-1.8055,-1.8064,-1.8055,-1.8044,-1.8039,-1.8011,-1.8061,-1.8067,-1.8113,-1.8019,-1.8188,-1.8195,-1.8201,-1.829,-1.8305,-1.8318,0,0,0,0,0,-1.8053,-1.8118,-1.8092,-1.8097,-1.8112,-1.8141,-1.8143,-1.8108,-1.8068,-1.8097,-1.8081,-1.804,-1.8104,-1.8066,-1.8073,-1.812,-1.8185,-1.8193,-1.82,-1.8284,-1.8302,-1.8318,0,0,0,0,0,0,-1.8141,-1.8115,-1.8086,-1.8147,-1.8147,-1.8127,-1.8163,-1.8128,-1.814,-1.8132,-1.8089,-1.8087,-1.8143,-1.8135,-1.8094,-1.8196,-1.8138,-1.8147,-1.8199,-1.8216,-1.823,-1.8232,-1.8021,0,0,0,0,0,-1.8168,-1.8193,-1.8168,-1.8224,-1.8225,-1.8195,-1.8206,-1.8179,-1.8177,-1.8177,-1.8164,-1.8165,-1.8185,-1.82,-1.8217,-1.8288,-1.8285,-1.8324,-1.8338,-1.8349,-1.8359,-1.8397,-1.8414,-1.8229,-1.8229,-1.8229,0,0,-1.8223,-1.8211,-1.823,-1.8242,-1.8238,-1.8266,-1.8195,-1.8227,-1.8248,-1.8182,-1.8227,-1.8218,-1.8216,-1.8276,-1.8302,-1.8272,-1.8409,-1.8359,-1.8368,-1.8371,-1.8407,-1.8424,-1.844,-1.8234,-1.8233,-1.8232,0,0,-1.8338,-1.8331,-1.8378,-1.8376,-1.8371,-1.835,-1.8362,-1.8347,-1.8338,-1.8383,-1.8334,-1.8358,-1.8394,-1.8395,-1.84,-1.8516,-1.8479,-1.8522,-1.8597,-1.8635,-1.8649,-1.8662,-1.8706,-1.8721,-1.8531,-1.8531,-1.8531,0,-1.8408,-1.8447,-1.8406,-1.8442,-1.845,-1.839,-1.8438,-1.8438,-1.844,-1.8447,-1.8413,-1.8457,-1.8451,-1.8512,-1.854,-1.8545,-1.8559,-1.8525,-1.865,-1.8663,-1.8674,-1.8715,-1.8731,-1.8537,-1.8536,-1.8536,-1.8535,0,-1.8534,-1.8562,-1.86,-1.8603,-1.8614,-1.8656,-1.8623,-1.8639,-1.8611,-1.8594,-1.8641,-1.8631,-1.8647,-1.8658,-1.8631,-1.8716,-1.8698,-1.8657,-1.8598,-1.8698,-1.8736,-1.8751,-1.8545,-1.8543,-1.8541,-1.854,0,0,-1.8706,-1.8686,-1.8701,-1.8702,-1.8692,-1.8714,-1.8753,-1.8767,-1.8783,-1.8786,-1.8819,-1.885,-1.8813,-1.8819,-1.8792,-1.8825,-1.892,-1.8781,-1.878,-1.8809,-1.9014,-1.9047,-1.9065,-1.8894,-1.8897,-1.8899,-1.9015,0,-1.8819,-1.8884,-1.8849,-1.892,-1.8946,-1.889,-1.8924,-1.8923,-1.8908,-1.8929,-1.8912,-1.8936,-1.8884,-1.8887,-1.8917,-1.8902,-1.8961,-1.8892,-1.8927,-1.8928,-1.8932,-1.9085,-1.9119,-1.9229,-1.903,-1.9032,-1.9034,0,-1.896,-1.8969,-1.9042,-1.9029,-1.9038,-1.907,-1.9081,-1.91,-1.9098,-1.9084,-1.9091,-1.9056,-1.9094,-1.9034,-1.9087,-1.9042,-1.9053,-1.9048,-1.9051,-1.9055,-1.8989,-1.9095,-1.9263,-1.9281,-1.9056,-1.9054,-1.9053,0,-1.9081,-1.9111,-1.916,-1.9162,-1.9147,-1.917,-1.9165,-1.9159,-1.917,-1.918,-1.9187,-1.92,-1.9209,-1.9221,-1.919,-1.9149,-1.9249,-1.9185,-1.9241,-1.9242,-1.9267,-1.9266,-1.9442,-1.927,-1.927,-1.9269,-1.9269,0,-1.9213,-1.9261,-1.9214,-1.9244,-1.9296,-1.9255,-1.9308,-1.9297,-1.9292,-1.932,-1.9271,-1.9299,-1.9255,-1.9279,-1.9255,-1.9304,-1.9308,-1.9299,-1.9293,-1.9306,-1.9307,-1.9314,-1.9307,-1.9274,-1.9273,-1.9272,-1.9271,0,-1.9358,-1.9329,-1.9378,-1.9359,-1.9356,-1.9395,-1.938,-1.9407,-1.9388,-1.9424,-1.943,-1.9401,-1.9426,-1.9396,-1.9418,-1.9402,-1.947,-1.9451,-1.9471,-1.9467,-1.9525,-1.9521,-1.9713,-1.9737,-1.9548,-1.955,-1.9551,0,-1.9446,-1.9481,-1.9466,-1.9481,-1.9478,-1.9503,-1.9514,-1.9474,-1.9488,-1.9488,-1.9516,-1.9536,-1.9551,-1.9593,-1.9575,-1.9592,-1.9575,-1.9641,-1.9577,-1.9589,-1.9579,-1.9578,-1.9583,-1.9655,-1.9657,-1.9659,-1.966,0,-1.9604,-1.9588,-1.9605,-1.9618,-1.9632,-1.964,-1.9645,-1.966,-1.9619,-1.9637,-1.9661,-1.9672,-1.9695,-1.9717,-1.9729,-1.9724,-1.9687,-1.968,-1.9694,-1.9709,-1.972,-1.9717,-1.951,-1.9677,-1.9675,-1.9674,-1.9673,-1.9672,-1.9725,-1.9755,-1.9749,-1.977,-1.9769,-1.9775,-1.98,-1.9784,-1.9803,-1.9819,-1.9794,-1.9825,-1.9822,-1.9834,-1.9834,-1.9859,-1.9831,-1.9851,-1.9856,-1.9863,-1.9873,-1.9714,-1.986,-1.986,-1.9859,-1.9859,-1.9859,0,-1.9884,-1.9877,-1.9897,-1.9904,-1.9922,-1.9882,-1.9885,-1.9903,-1.9931,-1.9931,-1.9946,-1.9975,-1.9996,-1.9978,-1.9996,-2.0019,-2.0003,-2.0026,-2.0025,-2.0025,-1.9895,-1.9883,-2.0039,-2.0039,-2.0039,-2.0039,-2.0039,-2.0039,-1.9968,-2.0017,-2.0,-2.0048,-2.004,-2.0071,-2.0076,-2.0081,-2.0081,-2.0116,-2.0132,-2.012,-2.0114,-2.013,-2.0148,-2.0143,-2.0153,-2.0183,-2.0171,-2.0051,-2.0034,-2.0017,-2.0005,-2.0184,-2.0184,-2.0299,-2.03,-2.0301]},{"header":{"parameterUnit":"m.s-1","parameterCategory":1,"la1":30.2991,"la2":30.254,"lo1":-89.0895,"lo2":-89.0444,"dy":0.0017,"dx":0.0017,"nx":28,"ny":28,"refTime":"2024-12-02T03:00:00:Z","depth":0,"parameterNumber":3,"parameterNumberName":"V-component_of_WINDS"},"data":[0,0,0,0,0,0,0,0,0,0,0,0,0,0,0,0,0,0,0,0,0,0,0,0,0,0,0,0,0,0,0,0,0,0,0,0,0,0,0,0,0,0,0,0,0,0,0,0,0,0,0,0,0,0,0,0,0,0,-2.6767,-2.6767,0,-2.6797,-2.6797,-2.6797,-2.677,-2.6769,-2.6768,-2.6767,-2.6795,-2.6797,-2.6799,0,0,0,0,0,0,0,0,0,0,0,0,0,-2.6684,-2.6686,-2.6767,-2.6767,-2.6768,-2.6797,-2.6797,-2.6797,-2.6771,-2.6769,-2.6768,-2.6767,-2.6795,-2.6797,-2.6799,0,0,0,0,0,0,0,0,0,0,0,0,0,-2.6718,-2.6686,-2.6767,-2.6758,-2.6757,-2.6797,-2.6797,-2.6798,-2.6771,-2.6769,-2.6768,-2.6766,-2.6794,-2.6797,-2.6799,-2.6848,0,0,-2.6807,-2.6809,0,0,0,0,0,0,0,0,-2.6716,-2.6721,-2.6759,-2.6758,-2.6758,-2.6778,-2.6778,-2.6815,-2.6771,-2.6766,-2.6767,-2.6765,-2.6791,-2.6794,-2.6803,-2.685,-2.6851,-2.6808,-2.6809,-2.681,-2.6811,0,0,0,0,0,0,0,-2.6713,-2.6719,-2.6779,-2.6759,-2.6759,-2.6751,-2.6754,-2.6785,-2.6787,-2.6766,-2.6764,-2.6768,-2.679,-2.68,-2.6803,-2.6851,-2.6808,-2.681,-2.6812,-2.6813,-2.6941,-2.6943,0,0,0,0,0,0,-2.6712,-2.6717,-2.6778,-2.6779,-2.6732,-2.6754,-2.6757,-2.6773,-2.6787,-2.6787,-2.6769,-2.6767,-2.6797,-2.68,-2.6804,-2.6864,-2.681,-2.6813,-2.6814,-2.6939,-2.6941,-2.6943,0,0,0,0,0,0,-2.6711,-2.6718,-2.6776,-2.6748,-2.6755,-2.6757,-2.6775,-2.6775,-2.6785,-2.6789,-2.6789,-2.678,-2.6795,-2.68,-2.6838,-2.6864,-2.6814,-2.6816,-2.6937,-2.694,-2.6942,-2.6983,0,0,0,0,0,0,-2.6708,-2.6718,-2.6737,-2.6749,-2.6756,-2.6811,-2.6777,-2.6776,-2.679,-2.6786,-2.6799,-2.6799,-2.6794,-2.6834,-2.6841,-2.6867,-2.6819,-2.6935,-2.6938,-2.6942,-2.6979,-2.6986,-2.6993,0,0,0,0,0,-2.6706,-2.6746,-2.6738,-2.6745,-2.6781,-2.6812,-2.6817,-2.6811,-2.6792,-2.6811,-2.6814,-2.6799,-2.686,-2.6838,-2.6845,-2.6873,-2.6933,-2.6937,-2.6941,-2.6976,-2.6985,-2.6992,0,0,0,0,0,0,-2.6736,-2.6748,-2.6739,-2.6784,-2.6798,-2.6808,-2.6832,-2.6821,-2.6839,-2.6835,-2.6827,-2.683,-2.687,-2.6875,-2.685,-2.6921,-2.6893,-2.6899,-2.6917,-2.6926,-2.6933,-2.6931,-2.6821,0,0,0,0,0,-2.6749,-2.6774,-2.6782,-2.6822,-2.6829,-2.6829,-2.6843,-2.6837,-2.685,-2.6856,-2.6861,-2.6874,-2.6896,-2.6911,-2.6931,-2.6979,-2.6982,-2.7001,-2.7008,-2.7014,-2.7019,-2.7046,-2.7055,-2.6957,-2.6957,-2.6957,0,0,-2.6774,-2.6783,-2.68,-2.6828,-2.6838,-2.6864,-2.6834,-2.6863,-2.6882,-2.686,-2.6896,-2.6901,-2.6914,-2.6958,-2.6977,-2.6963,-2.7047,-2.7019,-2.7023,-2.7026,-2.7051,-2.706,-2.7068,-2.696,-2.6959,-2.6959,0,0,-2.6834,-2.6843,-2.6878,-2.6889,-2.6904,-2.6904,-2.6912,-2.6924,-2.6927,-2.6963,-2.6947,-2.6969,-2.7008,-2.7018,-2.7029,-2.7093,-2.708,-2.71,-2.7136,-2.7162,-2.717,-2.7176,-2.7201,-2.7209,-2.7105,-2.7105,-2.7105,0,-2.6863,-2.6903,-2.6897,-2.6927,-2.694,-2.6922,-2.6957,-2.6967,-2.6988,-2.6998,-2.6982,-2.703,-2.7037,-2.7083,-2.7099,-2.7108,-2.7117,-2.7099,-2.7169,-2.7176,-2.7182,-2.7205,-2.7214,-2.7107,-2.7107,-2.7107,-2.7106,0,-2.6939,-2.6967,-2.6993,-2.7015,-2.7031,-2.7063,-2.7061,-2.7078,-2.7071,-2.7073,-2.711,-2.7119,-2.7141,-2.7151,-2.7144,-2.7197,-2.7188,-2.717,-2.7142,-2.7194,-2.7216,-2.7224,-2.7111,-2.711,-2.7109,-2.7108,0,0,-2.702,-2.7039,-2.7049,-2.7059,-2.7075,-2.7096,-2.7127,-2.715,-2.7165,-2.718,-2.7206,-2.7239,-2.7223,-2.7235,-2.7229,-2.7252,-2.7304,-2.7232,-2.7232,-2.7246,-2.7363,-2.7377,-2.7387,-2.7294,-2.7296,-2.7297,-2.7362,0,-2.7082,-2.7138,-2.7134,-2.7186,-2.7212,-2.7195,-2.7223,-2.7235,-2.7237,-2.7259,-2.726,-2.7284,-2.7261,-2.7269,-2.729,-2.7293,-2.7327,-2.7288,-2.7319,-2.732,-2.7318,-2.7398,-2.7413,-2.7474,-2.737,-2.7372,-2.7373,0,-2.7162,-2.7181,-2.7237,-2.725,-2.7261,-2.7286,-2.7307,-2.7327,-2.7341,-2.7341,-2.7354,-2.7344,-2.7375,-2.7346,-2.7389,-2.7362,-2.7374,-2.7378,-2.738,-2.7384,-2.7351,-2.7406,-2.7493,-2.7503,-2.7386,-2.7385,-2.7384,0,-2.7218,-2.7257,-2.7296,-2.7305,-2.7321,-2.7339,-2.7346,-2.7357,-2.7372,-2.739,-2.7399,-2.7419,-2.7431,-2.7447,-2.7443,-2.7422,-2.7488,-2.7457,-2.7489,-2.7489,-2.7505,-2.7504,-2.7597,-2.751,-2.751,-2.751,-2.7509,0,-2.7288,-2.7324,-2.7322,-2.7346,-2.7385,-2.7378,-2.7416,-2.7421,-2.7432,-2.7456,-2.7441,-2.7464,-2.7457,-2.7479,-2.7476,-2.7513,-2.7517,-2.7518,-2.7518,-2.7521,-2.7521,-2.753,-2.7526,-2.7512,-2.7511,-2.7511,-2.7511,0,-2.7358,-2.7358,-2.7399,-2.7411,-2.7414,-2.7443,-2.7452,-2.7474,-2.7475,-2.7506,-2.7513,-2.7514,-2.754,-2.7537,-2.7565,-2.7563,-2.7609,-2.7602,-2.7605,-2.7604,-2.7637,-2.7634,-2.774,-2.7753,-2.7656,-2.7657,-2.7658,0,-2.7403,-2.7431,-2.7445,-2.7461,-2.747,-2.7495,-2.751,-2.7504,-2.752,-2.7538,-2.7558,-2.7583,-2.7602,-2.7644,-2.7647,-2.7669,-2.7663,-2.7698,-2.7666,-2.7669,-2.7665,-2.7664,-2.7668,-2.7705,-2.7706,-2.7707,-2.7708,0,-2.7485,-2.7484,-2.7507,-2.753,-2.7549,-2.7566,-2.7582,-2.7595,-2.7591,-2.7609,-2.7636,-2.7651,-2.7681,-2.7706,-2.7726,-2.7732,-2.772,-2.7718,-2.7727,-2.7731,-2.7733,-2.7734,-2.7624,-2.7716,-2.7715,-2.7714,-2.7714,-2.7714,-2.7545,-2.7569,-2.7584,-2.761,-2.7621,-2.7636,-2.7659,-2.7662,-2.7685,-2.771,-2.7704,-2.7734,-2.7747,-2.7773,-2.7782,-2.7805,-2.7792,-2.7804,-2.7808,-2.7811,-2.7816,-2.7728,-2.7808,-2.7808,-2.7808,-2.7808,-2.7808,0,-2.7628,-2.7637,-2.766,-2.7684,-2.7704,-2.7691,-2.7708,-2.7726,-2.7753,-2.7766,-2.7786,-2.7817,-2.7841,-2.7846,-2.7868,-2.7886,-2.7881,-2.7892,-2.7892,-2.7894,-2.7826,-2.7817,-2.7896,-2.7896,-2.7896,-2.7896,-2.7896,-2.7896,-2.7674,-2.7714,-2.7714,-2.7759,-2.7767,-2.7798,-2.7809,-2.7823,-2.7833,-2.7869,-2.7889,-2.7893,-2.7902,-2.7926,-2.7947,-2.7948,-2.7958,-2.7972,-2.797,-2.7907,-2.7898,-2.789,-2.7881,-2.7973,-2.7974,-2.8037,-2.8037,-2.8038]}]]